[[{"header":{"parameterUnit":"m.s-1","parameterCategory":1,"la1":30.2991,"la2":30.254,"lo1":-89.0895,"lo2":-89.0444,"dy":0.0017,"dx":0.0017,"nx":28,"ny":28,"refTime":"2025-04-27T09:00:00:Z","depth":0,"parameterNumber":2,"parameterNumberName":"U-component_of_WINDS"},"data":[0,0,0,0,0,0,0,0,0,0,0,0,0,0,0,0,0,0,0,0,0,0,0,0,0,0,0,0,0,0,0,0,0,0,0,0,0,0,0,0,0,0,0,0,0,0,0,0,0,0,0,0,0,0,0,0,0,0,0.5447,0.5449,0,0.5636,0.5638,0.564,0.5726,0.5726,0.5726,0.5726,0.5921,0.5926,0.5931,0,0,0,0,0,0,0,0,0,0,0,0,0,0.5158,0.5163,0.5446,0.5449,0.5451,0.5636,0.5638,0.5641,0.5726,0.5726,0.5726,0.5726,0.5919,0.5925,0.5932,0,0,0,0,0,0,0,0,0,0,0,0,0,0.5309,0.5165,0.5446,0.5516,0.5524,0.5635,0.5638,0.5642,0.5726,0.5726,0.5726,0.5726,0.5917,0.5925,0.5933,0.5988,0,0,0.5957,0.5961,0,0,0,0,0,0,0,0,0.53,0.532,0.5503,0.5511,0.5521,0.5657,0.5608,0.5758,0.5727,0.565,0.5726,0.5725,0.5833,0.5848,0.5885,0.5998,0.6006,0.5958,0.5963,0.5966,0.5969,0,0,0,0,0,0,0,0.529,0.5312,0.5521,0.5506,0.5517,0.5538,0.5559,0.5637,0.5741,0.5656,0.5663,0.5684,0.5838,0.5877,0.589,0.6009,0.5958,0.5965,0.597,0.5973,0.6176,0.6177,0,0,0,0,0,0,0.5268,0.5303,0.5515,0.5527,0.5408,0.5543,0.5567,0.5614,0.574,0.5759,0.5684,0.5688,0.5863,0.588,0.5897,0.5971,0.5966,0.5974,0.5979,0.6176,0.6176,0.6177,0,0,0,0,0,0,0.5261,0.5286,0.5508,0.5417,0.5447,0.5549,0.56,0.5618,0.5656,0.5761,0.578,0.5705,0.5863,0.5886,0.5965,0.5978,0.5978,0.5985,0.6175,0.6176,0.6177,0.6118,0,0,0,0,0,0,0.5253,0.5283,0.5306,0.5417,0.5451,0.5572,0.5601,0.5622,0.567,0.5676,0.5785,0.5803,0.5865,0.5952,0.5973,0.599,0.5991,0.6174,0.6176,0.6176,0.6119,0.6116,0.6114,0,0,0,0,0,0.5242,0.5282,0.5306,0.5332,0.5481,0.5573,0.5593,0.5663,0.567,0.5694,0.5761,0.58,0.5973,0.596,0.5984,0.6003,0.6174,0.6175,0.6176,0.612,0.6117,0.6114,0,0,0,0,0,0,0.517,0.5298,0.5326,0.5403,0.5476,0.5587,0.5619,0.5657,0.573,0.5733,0.5816,0.584,0.5912,0.5966,0.5948,0.6063,0.6077,0.6083,0.6026,0.6024,0.6021,0.6008,0.5998,0,0,0,0,0,0.5163,0.5227,0.5335,0.5392,0.5427,0.5516,0.5559,0.5606,0.5686,0.5717,0.5791,0.5867,0.5938,0.5984,0.6056,0.6126,0.6151,0.6151,0.6149,0.6146,0.6151,0.6192,0.6193,0.6181,0.6181,0.6181,0,0,0.515,0.5227,0.5263,0.538,0.5442,0.5506,0.5542,0.5609,0.5657,0.5728,0.5807,0.5863,0.5953,0.6028,0.6065,0.6075,0.616,0.6148,0.6145,0.6152,0.6193,0.6194,0.6195,0.6182,0.6182,0.6182,0,0,0.5158,0.5223,0.5278,0.5339,0.5433,0.5492,0.5504,0.5609,0.5649,0.573,0.5784,0.5842,0.5964,0.6026,0.6073,0.6102,0.6141,0.6123,0.6112,0.6151,0.6152,0.6153,0.6164,0.6166,0.6127,0.6127,0.6127,0,0.5129,0.5228,0.5301,0.5364,0.5414,0.548,0.5536,0.5592,0.5704,0.5737,0.5746,0.5899,0.5965,0.6055,0.6062,0.6098,0.6115,0.6112,0.6146,0.6148,0.615,0.6161,0.6165,0.6125,0.6125,0.6125,0.6125,0,0.5188,0.5256,0.5289,0.5395,0.5448,0.5507,0.5589,0.5634,0.5676,0.5733,0.5814,0.5894,0.5983,0.6008,0.605,0.6104,0.6107,0.6129,0.6145,0.6147,0.6159,0.6164,0.6121,0.6122,0.6123,0.6123,0,0,0.5158,0.5303,0.5314,0.5362,0.547,0.5524,0.5585,0.5671,0.5709,0.5783,0.5837,0.5937,0.5959,0.6012,0.6062,0.6095,0.6113,0.6115,0.6118,0.6112,0.6178,0.616,0.6164,0.6139,0.614,0.6141,0.617,0,0.5182,0.5295,0.5362,0.5448,0.5511,0.5574,0.5627,0.5699,0.5753,0.5815,0.5876,0.5946,0.5968,0.6001,0.6037,0.6103,0.6128,0.6102,0.619,0.6192,0.6166,0.6171,0.6153,0.6177,0.6175,0.6176,0.6177,0,0.5225,0.5297,0.539,0.5489,0.5518,0.5565,0.5649,0.5707,0.5789,0.5827,0.5885,0.5934,0.6001,0.601,0.6104,0.6085,0.6125,0.6162,0.6165,0.6177,0.6185,0.6183,0.6187,0.619,0.6185,0.6184,0.6184,0,0.5193,0.5315,0.5386,0.5425,0.5543,0.5575,0.5625,0.5707,0.5754,0.5827,0.5859,0.5938,0.5982,0.6043,0.6112,0.6112,0.6199,0.6214,0.6232,0.623,0.6249,0.6247,0.6259,0.6272,0.6272,0.6272,0.6272,0,0.5213,0.5267,0.5373,0.5417,0.5479,0.5554,0.5614,0.5669,0.5741,0.5796,0.5855,0.5905,0.5993,0.6054,0.6109,0.6178,0.6197,0.623,0.6243,0.6225,0.6221,0.6253,0.6253,0.6273,0.6273,0.6273,0.6273,0,0.519,0.5263,0.5344,0.5448,0.5476,0.5517,0.5607,0.5651,0.5708,0.5777,0.5798,0.5888,0.5963,0.6037,0.6139,0.6175,0.6243,0.6262,0.6216,0.6224,0.6238,0.6236,0.6272,0.6281,0.6286,0.6286,0.6286,0,0.5198,0.5241,0.5349,0.5391,0.544,0.5505,0.5554,0.5629,0.5676,0.5772,0.5805,0.5884,0.5952,0.6069,0.6143,0.6221,0.6242,0.6249,0.6254,0.6234,0.6243,0.624,0.6244,0.6247,0.6247,0.6246,0.6246,0,0.5204,0.5238,0.5306,0.5385,0.5441,0.5508,0.5576,0.5606,0.5694,0.5745,0.5822,0.5875,0.5977,0.6055,0.6141,0.6193,0.6234,0.6244,0.6252,0.6234,0.6206,0.6222,0.621,0.6243,0.6243,0.6243,0.6244,0.6244,0.5198,0.5239,0.5321,0.5394,0.5453,0.5516,0.5563,0.5625,0.5691,0.578,0.582,0.5898,0.5978,0.6097,0.6148,0.621,0.6221,0.6233,0.6236,0.6238,0.6234,0.6195,0.6226,0.6226,0.6226,0.6227,0.6227,0,0.5208,0.5264,0.533,0.5424,0.5481,0.5513,0.5591,0.5636,0.5704,0.5775,0.584,0.5928,0.6003,0.6083,0.6163,0.6197,0.6218,0.6216,0.6214,0.6226,0.622,0.6205,0.6197,0.6197,0.6197,0.6197,0.6197,0.6197,0.522,0.5291,0.5334,0.5435,0.549,0.5567,0.5608,0.5666,0.5723,0.5819,0.5881,0.5932,0.6007,0.6093,0.6163,0.6185,0.6212,0.6204,0.6231,0.6224,0.6226,0.6228,0.6215,0.6209,0.6209,0.6232,0.6232,0.6232]},{"header":{"parameterUnit":"m.s-1","parameterCategory":1,"la1":30.2991,"la2":30.254,"lo1":-89.0895,"lo2":-89.0444,"dy":0.0017,"dx":0.0017,"nx":28,"ny":28,"refTime":"2025-04-27T09:00:00:Z","depth":0,"parameterNumber":3,"parameterNumberName":"V-component_of_WINDS"},"data":[0,0,0,0,0,0,0,0,0,0,0,0,0,0,0,0,0,0,0,0,0,0,0,0,0,0,0,0,0,0,0,0,0,0,0,0,0,0,0,0,0,0,0,0,0,0,0,0,0,0,0,0,0,0,0,0,0,0,4.1985,4.1985,0,4.195,4.195,4.1949,4.1942,4.1942,4.1943,4.1943,4.1901,4.19,4.1898,0,0,0,0,0,0,0,0,0,0,0,0,0,4.204,4.2039,4.1985,4.1984,4.1984,4.195,4.195,4.1949,4.1942,4.1942,4.1943,4.1943,4.1901,4.19,4.1898,0,0,0,0,0,0,0,0,0,0,0,0,0,4.2012,4.2039,4.1985,4.1977,4.1975,4.195,4.195,4.1949,4.1942,4.1942,4.1943,4.1943,4.1902,4.19,4.1898,4.1877,0,0,4.1892,4.1891,0,0,0,0,0,0,0,0,4.2013,4.201,4.1978,4.1977,4.1976,4.1951,4.1954,4.1925,4.1942,4.1954,4.1943,4.1943,4.1917,4.1914,4.1906,4.1875,4.1873,4.1891,4.189,4.1889,4.1889,0,0,0,0,0,0,0,4.2015,4.2011,4.1971,4.1978,4.1976,4.1973,4.1969,4.1948,4.1933,4.1953,4.1953,4.1949,4.1916,4.1908,4.1905,4.1872,4.1891,4.189,4.1888,4.1887,4.1822,4.1822,0,0,0,0,0,0,4.2019,4.2013,4.1972,4.197,4.1996,4.1971,4.1967,4.1958,4.1934,4.1931,4.1949,4.1949,4.1911,4.1907,4.1903,4.1877,4.1889,4.1887,4.1886,4.1823,4.1822,4.1821,0,0,0,0,0,0,4.2021,4.2016,4.1973,4.1991,4.1986,4.197,4.196,4.1957,4.1949,4.193,4.1927,4.1943,4.1911,4.1906,4.1884,4.1876,4.1886,4.1884,4.1823,4.1822,4.1822,4.1825,0,0,0,0,0,0,4.2022,4.2016,4.2009,4.1991,4.1985,4.1956,4.1959,4.1956,4.1946,4.1946,4.1924,4.1921,4.1911,4.1887,4.1882,4.1873,4.1883,4.1824,4.1823,4.1822,4.1825,4.1824,4.1823,0,0,0,0,0,4.2024,4.201,4.2009,4.2004,4.1976,4.1956,4.1952,4.1943,4.1946,4.1938,4.1926,4.1922,4.1878,4.1885,4.1879,4.1869,4.1824,4.1823,4.1822,4.1826,4.1824,4.1823,0,0,0,0,0,0,4.2025,4.2008,4.2006,4.1986,4.1973,4.1955,4.1944,4.1941,4.1925,4.1926,4.1913,4.1908,4.1886,4.1875,4.1884,4.1848,4.1851,4.1848,4.1856,4.1854,4.1853,4.1856,4.1881,0,0,0,0,0,4.2024,4.2011,4.1995,4.1979,4.1972,4.196,4.195,4.1945,4.193,4.1923,4.191,4.1893,4.1876,4.1864,4.1847,4.1824,4.1818,4.1814,4.1813,4.1812,4.181,4.1797,4.1795,4.1818,4.1818,4.1818,0,0,4.2019,4.2008,4.2,4.1979,4.1968,4.1953,4.1955,4.1939,4.1927,4.192,4.1899,4.1888,4.1869,4.1847,4.1836,4.1837,4.1803,4.1811,4.181,4.1809,4.1796,4.1793,4.1791,4.1817,4.1817,4.1817,0,0,4.2004,4.1994,4.198,4.197,4.1954,4.1946,4.1942,4.1925,4.1918,4.1897,4.1892,4.1877,4.1847,4.1834,4.1823,4.1804,4.1799,4.1798,4.1793,4.178,4.1778,4.1776,4.1769,4.1767,4.1796,4.1796,4.1796,0,4.2,4.1979,4.1972,4.1958,4.1948,4.1943,4.1928,4.1917,4.1896,4.1888,4.1891,4.1854,4.184,4.1815,4.181,4.1802,4.1796,4.1801,4.1779,4.1778,4.1776,4.1769,4.1766,4.1796,4.1796,4.1796,4.1796,0,4.1975,4.1961,4.1951,4.1933,4.1922,4.1907,4.1896,4.1886,4.1881,4.1873,4.1851,4.1835,4.1815,4.1808,4.1803,4.1782,4.1783,4.1782,4.1785,4.1774,4.1767,4.1764,4.1796,4.1796,4.1796,4.1796,0,0,4.1958,4.1938,4.1935,4.1927,4.1909,4.1897,4.1881,4.1864,4.1855,4.1841,4.1826,4.1802,4.1802,4.179,4.1782,4.1771,4.1757,4.1772,4.1771,4.177,4.1732,4.1733,4.173,4.1754,4.1754,4.1753,4.1734,0,4.1941,4.1915,4.1909,4.1886,4.1872,4.1868,4.1854,4.1841,4.1832,4.1818,4.1808,4.1791,4.1792,4.1785,4.1774,4.1761,4.1749,4.1762,4.1739,4.1739,4.1744,4.1727,4.1727,4.1709,4.1731,4.1731,4.1731,0,4.1917,4.1904,4.1881,4.1866,4.186,4.1848,4.1832,4.1819,4.1804,4.1798,4.1786,4.178,4.1761,4.1766,4.174,4.175,4.174,4.1732,4.1731,4.1728,4.1734,4.1723,4.1704,4.1701,4.1726,4.1727,4.1727,0,4.1907,4.1884,4.1867,4.1861,4.1843,4.1835,4.1826,4.1812,4.1802,4.1787,4.178,4.1762,4.1752,4.1738,4.1727,4.1732,4.1702,4.1706,4.1696,4.1696,4.1689,4.169,4.1668,4.1683,4.1683,4.1684,4.1684,0,4.1888,4.1874,4.1863,4.1852,4.1836,4.1828,4.1811,4.1803,4.179,4.1777,4.1771,4.1758,4.1745,4.173,4.1721,4.1701,4.1696,4.169,4.1688,4.169,4.1691,4.1683,4.1684,4.1683,4.1683,4.1683,4.1683,0,4.1874,4.1867,4.1848,4.1834,4.183,4.1818,4.1805,4.1794,4.1785,4.1769,4.1764,4.175,4.1732,4.172,4.1696,4.169,4.1668,4.1666,4.1674,4.1673,4.1664,4.1665,4.1636,4.1632,4.165,4.165,4.165,0,4.1863,4.1852,4.1837,4.1829,4.1821,4.1808,4.1798,4.179,4.178,4.1762,4.1753,4.1735,4.1721,4.1692,4.1678,4.166,4.1657,4.1649,4.1654,4.1658,4.1657,4.1658,4.1656,4.1647,4.1647,4.1647,4.1647,0,4.1843,4.184,4.1827,4.1814,4.1803,4.1791,4.178,4.1773,4.1762,4.1751,4.1734,4.1722,4.17,4.1681,4.1662,4.1652,4.1647,4.1646,4.1642,4.1645,4.165,4.1647,4.1672,4.1646,4.1646,4.1646,4.1646,4.1646,4.1829,4.182,4.1808,4.1795,4.1785,4.1775,4.1764,4.1755,4.1741,4.1724,4.1719,4.1701,4.1686,4.166,4.1649,4.1634,4.1635,4.163,4.1628,4.1627,4.1627,4.1653,4.163,4.163,4.163,4.163,4.163,0,4.1809,4.1802,4.179,4.1774,4.1763,4.1763,4.1749,4.174,4.1725,4.1712,4.1699,4.1679,4.1661,4.1647,4.1629,4.1619,4.1617,4.1615,4.1615,4.1613,4.1628,4.1633,4.1617,4.1617,4.1617,4.1617,4.1617,4.1617,4.1797,4.1781,4.1777,4.1756,4.1748,4.1732,4.1725,4.1715,4.1705,4.1684,4.167,4.1662,4.1648,4.1629,4.1613,4.1609,4.1602,4.1601,4.1596,4.161,4.1612,4.1613,4.1618,4.1599,4.1599,4.1583,4.1582,4.1582]}]]